Date String (YYYY-MM-DD hh:mm:ss) UTC,Instrument flags,Ambient pressure (hPa),Sample flow (lpm),Bypass flow (lpm),Sample temperature (°C),Ambient temperature (°C),ASC tube jacket temperature (°C),LED temperature (°C),Box temperature (°C),Sample RH (%),Span deviation,Mass concentration (μg/m³),Mass concentration (μg/m³),Mass concentration (μg/m³)
DateTimeUTC,F1_M11,P_M11,Q1_M11,Q2_M11,T1_M11,T2_M11,T3_M11,T4_M11,T5_M11,U1_M11,ZSPAN_M11,X2_M11,X0_M11,X1_M11
2021-09-08 20:00:00,,0832.1,4.99,0.00,28.9,26.5,00.0,38.0,30.6,18.7,0002.5,0034.71,0053.08,0032.06
2021-09-08 20:01:00,,0832.1,5.01,0.00,28.9,26.9,00.0,38.0,30.7,18.7,0002.6,0034.75,0053.92,0032.04
2021-09-08 20:02:00,,0832.1,4.99,0.00,29.0,27.4,00.0,38.0,30.8,18.4,0002.3,0034.71,0054.16,0032.01
2021-09-08 20:03:00,,0832.1,5.00,0.00,29.0,27.7,00.0,38.0,30.9,18.4,0002.2,0034.75,0054.63,0032.02
2021-09-08 20:04:00,,0832.1,4.99,0.00,29.1,28.0,00.0,38.1,31.0,17.7,0002.3,0034.83,0054.91,0032.10
2021-09-08 20:05:00,,0832.1,5.00,0.00,29.2,28.2,00.0,38.1,31.1,17.6,0002.3,0034.92,0056.09,0032.18
2021-09-08 20:06:00,,0832.1,5.01,0.00,29.2,28.1,00.0,38.1,31.1,17.6,0002.4,0034.95,0056.71,0032.22
2021-09-08 20:07:00,,0832.1,5.01,0.00,29.1,26.4,00.0,38.1,30.6,17.6,0002.1,0035.04,0057.68,0032.28
2021-09-08 20:08:00,,0832.1,4.99,0.00,29.0,25.6,00.0,38.1,30.3,18.2,0002.0,0034.96,0057.57,0032.24
2021-09-08 20:09:00,,0832.1,5.00,0.00,28.9,26.0,00.0,38.1,30.5,18.2,0002.2,0034.89,0058.28,0032.13
2021-09-08 20:10:00,,0832.1,5.01,0.00,28.9,26.4,00.0,38.0,30.6,18.5,0002.2,0034.74,0057.48,0032.02
2021-09-08 20:11:00,,0832.1,4.98,0.00,28.9,26.8,00.0,38.0,30.7,18.4,0002.0,0034.62,0056.79,0031.97
2021-09-08 20:12:00,,0832.1,5.01,0.00,29.0,27.3,00.0,38.0,30.8,17.3,0002.0,0034.49,0056.26,0031.87
2021-09-08 20:13:00,,0832.1,4.99,0.00,29.0,27.7,00.0,38.0,30.9,17.2,0002.4,0034.45,0056.04,0031.81
2021-09-08 20:14:00,,0832.1,5.02,0.00,29.1,28.0,00.0,38.0,31.0,17.6,0002.5,0034.36,0054.60,0031.73
2021-09-08 20:15:00,,0832.1,5.00,0.00,29.2,28.2,00.0,38.1,31.1,17.3,0002.2,0034.23,0053.55,0031.60
2021-09-08 20:16:00,,0832.1,4.99,0.00,29.2,28.2,00.0,38.1,31.1,17.0,0002.1,0034.07,0052.32,0031.51
2021-09-08 20:17:00,,0832.1,5.01,0.00,29.2,26.7,00.0,38.1,30.8,16.5,0001.9,0033.91,0051.65,0031.39
2021-09-08 20:18:00,,0832.0,5.00,0.00,29.0,25.6,00.0,38.1,30.4,16.6,0001.7,0033.78,0050.92,0031.30
2021-09-08 20:19:00,,0832.1,5.00,0.00,28.9,25.9,00.0,38.1,30.5,17.0,0001.8,0033.68,0050.69,0031.20
2021-09-08 20:20:00,,0832.1,5.00,0.00,28.9,26.4,00.0,38.0,30.6,17.7,0001.7,0033.71,0049.44,0031.22
2021-09-08 20:21:00,,0832.1,5.01,0.00,28.9,26.8,00.0,38.0,30.7,18.3,0002.0,0033.79,0049.24,0031.29
2021-09-08 20:22:00,,0832.1,5.00,0.00,29.0,27.3,00.0,38.0,30.8,17.8,0002.2,0033.82,0049.31,0031.31
2021-09-08 20:23:00,,0832.1,4.99,0.00,29.0,27.7,00.0,38.0,30.9,17.7,0002.2,0033.82,0049.08,0031.32
2021-09-08 20:24:00,,0832.0,5.00,0.00,29.1,28.0,00.0,38.0,31.0,17.9,0002.0,0033.78,0048.74,0031.34
2021-09-08 20:25:00,,0832.0,5.00,0.00,29.2,28.2,00.0,38.1,31.1,18.4,0001.6,0033.74,0048.55,0031.34
2021-09-08 20:26:00,,0832.0,5.00,0.00,29.2,27.7,00.0,38.1,31.0,18.5,0001.5,0033.72,0048.62,0031.36
2021-09-08 20:27:00,,0832.0,5.00,0.00,29.1,26.0,00.0,38.1,30.4,18.6,0001.4,0033.80,0049.26,0031.34
2021-09-08 20:28:00,,0832.0,5.00,0.00,28.9,25.6,00.0,38.0,30.3,18.7,0001.4,0033.81,0049.38,0031.30
2021-09-08 20:29:00,,0832.0,5.00,0.00,28.9,26.1,00.0,38.0,30.4,19.0,0001.6,0033.76,0049.03,0031.25
2021-09-08 20:30:00,,0832.0,4.99,0.00,28.9,26.5,00.0,38.0,30.5,19.2,0001.7,0033.75,0048.46,0031.21
2021-09-08 20:31:00,,0832.0,5.01,0.00,28.9,26.9,00.0,38.0,30.6,19.0,0001.9,0033.70,0048.49,0031.18
2021-09-08 20:32:00,,0831.9,5.01,0.00,28.9,27.3,00.0,38.0,30.8,19.2,0001.9,0033.68,0048.67,0031.11
2021-09-08 20:33:00,,0831.8,4.99,0.00,29.0,27.7,00.0,38.0,30.9,19.0,0002.0,0033.66,0049.00,0031.07
2021-09-08 20:34:00,,0831.8,4.99,0.00,29.1,28.0,00.0,38.0,31.0,18.9,0002.1,0033.57,0048.72,0031.01
2021-09-08 20:35:00,,0831.8,4.99,0.00,29.1,28.3,00.0,38.0,31.1,18.6,0002.3,0033.50,0048.46,0030.94
2021-09-08 20:36:00,,0831.8,5.01,0.00,29.2,28.0,00.0,38.1,31.0,18.6,0002.5,0033.50,0049.22,0030.91
2021-09-08 20:37:00,,0831.7,5.00,0.00,29.1,26.2,00.0,38.1,30.5,18.8,0002.6,0033.55,0049.37,0030.89
2021-09-08 20:38:00,,0831.7,4.99,0.00,28.9,25.7,00.0,38.0,30.3,18.6,0002.6,0033.53,0049.34,0030.87
2021-09-08 20:39:00,,0831.7,5.01,0.00,28.9,26.1,00.0,38.0,30.4,18.7,0002.6,0033.56,0049.19,0030.88
2021-09-08 20:40:00,,0831.7,5.01,0.00,28.9,26.5,00.0,38.0,30.5,19.0,0002.6,0033.58,0051.25,0030.89
2021-09-08 20:41:00,,0831.8,4.99,0.00,28.9,26.9,00.0,38.0,30.6,18.7,0002.5,0033.65,0052.23,0030.93
2021-09-08 20:42:00,,0831.8,5.01,0.00,28.9,27.4,00.0,38.0,30.8,18.3,0002.2,0033.63,0052.04,0030.95
2021-09-08 20:43:00,,0831.8,4.99,0.00,29.0,27.7,00.0,38.0,30.9,17.9,0002.0,0033.66,0052.19,0030.99
2021-09-08 20:44:00,,0831.8,5.01,0.00,29.1,28.1,00.0,38.0,31.0,18.2,0001.6,0033.62,0051.63,0031.00
2021-09-08 20:45:00,,0831.8,5.00,0.00,29.2,28.3,00.0,38.1,31.1,18.1,0001.4,0033.75,0052.59,0031.04
2021-09-08 20:46:00,,0831.8,5.01,0.00,29.2,27.2,00.0,38.1,30.9,17.8,0000.9,0033.80,0053.12,0031.06
2021-09-08 20:47:00,,0831.8,5.00,0.00,29.0,25.6,00.0,38.0,30.3,18.1,0000.8,0033.81,0053.13,0031.07
2021-09-08 20:48:00,,0831.8,5.00,0.00,28.9,25.7,00.0,38.0,30.3,18.5,0000.9,0033.75,0054.37,0031.05
2021-09-08 20:49:00,,0831.8,5.00,0.00,28.9,26.2,00.0,38.0,30.5,18.6,0001.1,0033.65,0053.87,0030.98
2021-09-08 20:50:00,,0831.7,5.00,0.00,28.9,26.6,00.0,38.0,30.5,18.2,0001.1,0033.51,0053.48,0030.94
2021-09-08 20:51:00,,0831.7,5.01,0.00,28.9,27.1,00.0,38.0,30.7,17.9,0001.1,0033.42,0051.19,0030.87
2021-09-08 20:52:00,,0831.8,4.99,0.00,29.0,27.4,00.0,38.0,30.8,18.1,0001.0,0033.36,0051.06,0030.80
2021-09-08 20:53:00,,0831.8,4.99,0.00,29.0,27.7,00.0,38.0,30.9,18.1,0001.2,0033.29,0051.25,0030.70
2021-09-08 20:54:00,,0831.8,5.01,0.00,29.1,28.1,00.0,38.0,31.0,18.0,0001.2,0033.23,0051.13,0030.63
2021-09-08 20:55:00,,0831.8,5.00,0.00,29.2,28.3,00.0,38.0,31.1,16.7,0001.2,0033.16,0051.12,0030.61
2021-09-08 20:56:00,,0831.7,4.98,0.00,29.2,27.6,00.0,38.1,30.9,17.3,0001.4,0033.06,0050.34,0030.57
2021-09-08 20:57:00,,0831.7,5.01,0.00,29.1,25.9,00.0,38.0,30.4,18.2,0001.7,0033.01,0050.84,0030.54
2021-09-08 20:58:00,,0831.7,5.00,0.00,28.9,25.8,00.0,38.0,30.4,18.3,0001.8,0033.06,0051.45,0030.53
2021-09-08 20:59:00,,0831.7,5.01,0.00,28.9,26.2,00.0,38.0,30.5,18.3,0002.0,0033.06,0049.84,0030.53
